| time (UTC) | temp F | wind direction | speed MPH | gust MPH | rain 1hr in | rain 24hr in | rain mn in | humidity % | barometer mb |
| 20260503005827 | 49 | 0 | 2.0 | 3.0 | 0.00 | 0.00 | 0.00 | 53 | 1012.8 |
| 20260503005325 | 49 | 346 | 3.0 | 3.0 | 0.00 | 0.00 | 0.00 | 54 | 1012.3 |
| 20260503004821 | 49 | 0 | 3.0 | 3.0 | 0.00 | 0.00 | 0.00 | 54 | 1012.5 |
| 20260503004319 | 48 | 320 | 2.0 | 2.0 | 0.00 | 0.00 | 0.00 | 55 | 1012.3 |
| 20260503003816 | 49 | 356 | 0.0 | 1.0 | 0.00 | 0.00 | 0.00 | 57 | 1012.3 |
| 20260503003313 | 49 | 332 | 0.0 | 1.0 | 0.00 | 0.00 | 0.00 | 56 | 1012.2 |
| 20260503002810 | 49 | 330 | 0.0 | 0.0 | 0.00 | 0.00 | 0.00 | 56 | 1012.2 |
| 20260503002307 | 50 | 330 | 0.0 | 1.0 | 0.00 | 0.00 | 0.00 | 54 | 1012.1 |
| 20260503001803 | 50 | 335 | 2.0 | 2.0 | 0.00 | 0.00 | 0.00 | 52 | 1012.1 |
| 20260503001259 | 50 | 287 | 3.0 | 5.0 | 0.00 | 0.00 | 0.00 | 54 | 1012.0 |
| 20260503000757 | 51 | 324 | 1.0 | 2.0 | 0.00 | 0.00 | 0.00 | 52 | 1011.9 |
| 20260503000254 | 51 | 306 | 1.0 | 2.0 | 0.00 | 0.00 | 0.00 | 51 | 1011.9 |
| 20260502235751 | 51 | 322 | 4.0 | 5.0 | 0.00 | 0.00 | 0.00 | 51 | 1011.8 |
| 20260502235249 | 51 | 344 | 4.0 | 5.0 | 0.00 | 0.00 | 0.00 | 53 | 1011.7 |
| 20260502234745 | 52 | 357 | 2.0 | 2.0 | 0.00 | 0.00 | 0.00 | 51 | 1011.8 |
| 20260502234242 | 52 | 335 | 2.0 | 3.0 | 0.00 | 0.00 | 0.00 | 51 | 1011.7 |
| 20260502233738 | 52 | 313 | 3.0 | 3.0 | 0.00 | 0.00 | 0.00 | 50 | 1011.7 |
| 20260502233235 | 52 | 320 | 3.0 | 3.0 | 0.00 | 0.00 | 0.00 | 50 | 1011.7 |
| 20260502232731 | 52 | 298 | 3.0 | 5.0 | 0.00 | 0.00 | 0.00 | 50 | 1011.6 |
| 20260502232228 | 53 | 351 | 2.0 | 2.0 | 0.00 | 0.00 | 0.00 | 48 | 1011.5 |
| 20260502231725 | 53 | 338 | 3.0 | 3.0 | 0.00 | 0.00 | 0.00 | 49 | 1011.6 |
| 20260502231223 | 53 | 304 | 4.0 | 6.0 | 0.00 | 0.00 | 0.00 | 49 | 1011.5 |
| 20260502230721 | 53 | 332 | 7.0 | 9.0 | 0.00 | 0.00 | 0.00 | 48 | 1011.2 |
| 20260502230219 | 53 | 300 | 6.0 | 7.0 | 0.00 | 0.00 | 0.00 | 47 | 1011.5 |
| 20260502225715 | 53 | 322 | 3.0 | 3.0 | 0.00 | 0.00 | 0.00 | 47 | 1011.2 |
| 20260502225212 | 54 | 269 | 3.0 | 3.0 | 0.00 | 0.00 | 0.00 | 49 | 1011.5 |
| 20260502224708 | 54 | 325 | 3.0 | 3.0 | 0.00 | 0.00 | 0.00 | 48 | 1011.2 |
| 20260502224205 | 54 | 309 | 4.0 | 5.0 | 0.00 | 0.00 | 0.00 | 50 | 1011.4 |
| 20260502223702 | 54 | 267 | 5.0 | 7.0 | 0.00 | 0.00 | 0.00 | 47 | 1011.2 |
| 20260502223201 | 54 | 332 | 5.0 | 6.0 | 0.00 | 0.00 | 0.00 | 46 | 1011.3 |
| 20260502222658 | 54 | 279 | 4.0 | 5.0 | 0.00 | 0.00 | 0.00 | 47 | 1011.3 |
| 20260502222155 | 54 | 312 | 9.0 | 10.0 | 0.00 | 0.00 | 0.00 | 46 | 1011.2 |
| 20260502221650 | 54 | 329 | 6.0 | 7.0 | 0.00 | 0.00 | 0.00 | 47 | 1011.2 |
| 20260502221147 | 54 | 313 | 4.0 | 5.0 | 0.00 | 0.00 | 0.00 | 47 | 1011.2 |
| 20260502220643 | 54 | 342 | 7.0 | 8.0 | 0.00 | 0.00 | 0.00 | 45 | 1011.2 |
| 20260502220140 | 55 | 328 | 5.0 | 6.0 | 0.00 | 0.00 | 0.00 | 46 | 1011.1 |
| 20260502215637 | 56 | 355 | 5.0 | 6.0 | 0.00 | 0.00 | 0.00 | 45 | 1011.0 |
| 20260502215134 | 56 | 288 | 6.0 | 7.0 | 0.00 | 0.00 | 0.00 | 44 | 1011.1 |
| 20260502214631 | 55 | 290 | 7.0 | 8.0 | 0.00 | 0.00 | 0.00 | 45 | 1011.0 |
| 20260502214128 | 55 | 272 | 5.0 | 7.0 | 0.00 | 0.00 | 0.00 | 48 | 1010.9 |
| 20260502213625 | 56 | 311 | 3.0 | 3.0 | 0.00 | 0.00 | 0.00 | 47 | 1011.1 |
| 20260502213122 | 57 | 323 | 7.0 | 10.0 | 0.00 | 0.00 | 0.00 | 45 | 1011.1 |
| 20260502212621 | 56 | 314 | 5.0 | 6.0 | 0.00 | 0.00 | 0.00 | 47 | 1010.9 |
| 20260502212120 | 54 | 277 | 3.0 | 3.0 | 0.00 | 0.00 | 0.00 | 47 | 1011.1 |
| 20260502211614 | 54 | 306 | 5.0 | 6.0 | 0.00 | 0.00 | 0.00 | 50 | 1010.9 |
| 20260502211112 | 53 | 304 | 5.0 | 6.0 | 0.00 | 0.00 | 0.00 | 47 | 1010.9 |
| 20260502210609 | 53 | 309 | 5.0 | 6.0 | 0.00 | 0.00 | 0.00 | 49 | 1011.1 |
| 20260502210106 | 54 | 299 | 6.0 | 7.0 | 0.00 | 0.00 | 0.00 | 47 | 1011.0 |
| 20260502205603 | 54 | 282 | 5.0 | 6.0 | 0.00 | 0.00 | 0.00 | 47 | 1010.9 |
| 20260502205100 | 55 | 276 | 6.0 | 9.0 | 0.00 | 0.00 | 0.00 | 45 | 1010.8 |
| 20260502204556 | 57 | 246 | 5.0 | 7.0 | 0.00 | 0.00 | 0.00 | 47 | 1010.9 |
| 20260502204054 | 56 | 256 | 2.0 | 2.0 | 0.00 | 0.00 | 0.00 | 47 | 1011.1 |
| 20260502203551 | 55 | 301 | 3.0 | 5.0 | 0.00 | 0.00 | 0.00 | 47 | 1011.3 |
| 20260502203048 | 55 | 329 | 4.0 | 5.0 | 0.00 | 0.00 | 0.00 | 47 | 1011.2 |
| 20260502202544 | 54 | 261 | 3.0 | 5.0 | 0.00 | 0.00 | 0.00 | 49 | 1011.0 |
| 20260502202043 | 55 | 281 | 2.0 | 2.0 | 0.00 | 0.00 | 0.00 | 47 | 1011.3 |
| 20260502201538 | 54 | 293 | 4.0 | 7.0 | 0.00 | 0.00 | 0.00 | 51 | 1011.3 |
| 20260502201035 | 53 | 335 | 7.0 | 8.0 | 0.00 | 0.00 | 0.00 | 48 | 1011.2 |
| 20260502200530 | 53 | 340 | 8.0 | 9.0 | 0.00 | 0.00 | 0.00 | 48 | 1011.2 |
| 20260502200029 | 54 | 286 | 8.0 | 10.0 | 0.00 | 0.00 | 0.00 | 47 | 1011.2 |
| 20260502195526 | 54 | 314 | 5.0 | 6.0 | 0.00 | 0.00 | 0.00 | 48 | 1011.4 |
| 20260502195021 | 54 | 346 | 4.0 | 5.0 | 0.00 | 0.00 | 0.00 | 51 | 1011.4 |
| 20260502194519 | 53 | 290 | 7.0 | 9.0 | 0.00 | 0.00 | 0.00 | 48 | 1011.6 |
| 20260502194015 | 53 | 264 | 4.0 | 5.0 | 0.00 | 0.00 | 0.00 | 49 | 1011.4 |
| 20260502193512 | 53 | 266 | 7.0 | 8.0 | 0.00 | 0.00 | 0.00 | 47 | 1011.5 |
| 20260502193009 | 54 | 287 | 9.0 | 11.0 | 0.00 | 0.00 | 0.00 | 46 | 1011.5 |
| 20260502192505 | 54 | 262 | 4.0 | 7.0 | 0.00 | 0.00 | 0.00 | 49 | 1011.6 |
| 20260502192003 | 55 | 320 | 7.0 | 9.0 | 0.00 | 0.00 | 0.00 | 46 | 1011.6 |
| 20260502191500 | 54 | 293 | 6.0 | 8.0 | 0.00 | 0.00 | 0.00 | 48 | 1011.6 |
| 20260502190957 | 54 | 300 | 3.0 | 3.0 | 0.00 | 0.00 | 0.00 | 48 | 1011.6 |
| 20260502190454 | 54 | 323 | 4.0 | 6.0 | 0.00 | 0.00 | 0.00 | 51 | 1011.7 |
| 20260502185950 | 54 | 313 | 5.0 | 7.0 | 0.00 | 0.00 | 0.00 | 48 | 1011.8 |
| 20260502185446 | 53 | 335 | 3.0 | 3.0 | 0.00 | 0.00 | 0.00 | 52 | 1011.9 |
| 20260502184943 | 53 | 326 | 8.0 | 9.0 | 0.00 | 0.00 | 0.00 | 49 | 1012.0 |
| 20260502184438 | 55 | 326 | 4.0 | 5.0 | 0.00 | 0.00 | 0.00 | 47 | 1011.9 |
| 20260502183935 | 55 | 336 | 3.0 | 3.0 | 0.00 | 0.00 | 0.00 | 51 | 1011.8 |
| 20260502183431 | 56 | 342 | 3.0 | 3.0 | 0.00 | 0.00 | 0.00 | 52 | 1011.9 |
| 20260502182926 | 54 | 286 | 2.0 | 3.0 | 0.00 | 0.00 | 0.00 | 47 | 1012.1 |
| 20260502182422 | 54 | 295 | 5.0 | 5.0 | 0.00 | 0.00 | 0.00 | 50 | 1012.0 |
| 20260502181918 | 54 | 286 | 6.0 | 7.0 | 0.00 | 0.00 | 0.00 | 50 | 1012.1 |
| 20260502181417 | 54 | 314 | 5.0 | 7.0 | 0.00 | 0.00 | 0.00 | 50 | 1012.1 |
| 20260502180915 | 53 | 324 | 4.0 | 6.0 | 0.00 | 0.00 | 0.00 | 50 | 1012.2 |
| 20260502180412 | 53 | 299 | 7.0 | 9.0 | 0.00 | 0.00 | 0.00 | 48 | 1012.3 |
| 20260502170331 | 55 | 349 | 3.0 | 3.0 | 0.00 | 0.00 | 0.00 | 50 | 1012.3 |
| 20260502164318 | 53 | 86 | 1.0 | 1.0 | 0.00 | 0.00 | 0.00 | 46 | 1012.4 |
| 20260502163814 | 54 | 314 | 8.0 | 9.0 | 0.00 | 0.00 | 0.00 | 50 | 1012.6 |
| 20260502163310 | 53 | 298 | 6.0 | 8.0 | 0.00 | 0.00 | 0.00 | 52 | 1012.8 |
| 20260502162808 | 52 | 296 | 3.0 | 3.0 | 0.00 | 0.00 | 0.00 | 55 | 1012.4 |
| 20260502162305 | 53 | 302 | 6.0 | 7.0 | 0.00 | 0.00 | 0.00 | 51 | 1012.8 |
| 20260502161801 | 53 | 317 | 6.0 | 7.0 | 0.00 | 0.00 | 0.00 | 50 | 1012.6 |
| 20260502161257 | 56 | 318 | 2.0 | 2.0 | 0.00 | 0.00 | 0.00 | 51 | 1012.7 |
| 20260502160756 | 53 | 354 | 2.0 | 3.0 | 0.00 | 0.00 | 0.00 | 51 | 1012.7 |
| 20260502160255 | 54 | 335 | 1.0 | 1.0 | 0.00 | 0.00 | 0.00 | 52 | 1012.7 |
| 20260502152224 | 53 | 329 | 3.0 | 3.0 | 0.00 | 0.00 | 0.00 | 50 | 1013.2 |
| 20260502151721 | 53 | 336 | 4.0 | 5.0 | 0.00 | 0.00 | 0.00 | 51 | 1013.1 |
| 20260502151218 | 53 | 236 | 4.0 | 6.0 | 0.00 | 0.00 | 0.00 | 52 | 1013.0 |
| 20260502150715 | 53 | 276 | 1.0 | 2.0 | 0.00 | 0.00 | 0.00 | 50 | 1012.8 |
| 20260502150212 | 52 | 357 | 3.0 | 3.0 | 0.00 | 0.00 | 0.00 | 52 | 1013.1 |
| 20260502130601 | 44 | 274 | 2.0 | 2.0 | 0.00 | 0.00 | 0.00 | 99 | 1013.2 |
| 20260502123544 | 40 | 277 | 3.0 | 3.0 | 0.00 | 0.00 | 0.00 | 99 | 1013.3 |
| 20260502123040 | 40 | 257 | 1.0 | 1.0 | 0.00 | 0.00 | 0.00 | 99 | 1013.1 |
| 20260502122537 | 39 | 281 | 1.0 | 1.0 | 0.00 | 0.00 | 0.00 | 99 | 1013.1 |
| 20260502122034 | 39 | 243 | 1.0 | 1.0 | 0.00 | 0.00 | 0.00 | 99 | 1013.1 |
| 20260502121532 | 39 | 334 | 0.0 | 1.0 | 0.00 | 0.00 | 0.00 | 99 | 1013.1 |
| 20260502121029 | 38 | 342 | 0.0 | 0.0 | 0.00 | 0.00 | 0.00 | 99 | 1013.1 |
| 20260502120525 | 37 | 336 | 0.0 | 0.0 | 0.00 | 0.00 | 0.00 | 99 | 1013.3 |
| 20260502115520 | 37 | 334 | 0.0 | 1.0 | 0.00 | 0.00 | 0.00 | 99 | 1012.8 |
| 20260502115015 | 37 | 339 | 1.0 | 1.0 | 0.00 | 0.00 | 0.00 | 99 | 1012.7 |
| 20260502114513 | 36 | 335 | 0.0 | 0.0 | 0.00 | 0.00 | 0.00 | 99 | 1012.9 |
| 20260502114009 | 36 | 299 | 0.0 | 0.0 | 0.00 | 0.00 | 0.00 | 99 | 1012.9 |
| 20260502113507 | 35 | 262 | 0.0 | 0.0 | 0.00 | 0.00 | 0.00 | 99 | 1013.0 |
| 20260502113006 | 35 | 252 | 0.0 | 0.0 | 0.00 | 0.00 | 0.00 | 99 | 1013.0 |
| 20260502112503 | 35 | 284 | 0.0 | 1.0 | 0.00 | 0.00 | 0.00 | 99 | 1013.1 |
| 20260502112000 | 34 | 286 | 1.0 | 1.0 | 0.00 | 0.00 | 0.00 | 99 | 1013.0 |
| 20260502111457 | 34 | 286 | 1.0 | 1.0 | 0.00 | 0.00 | 0.00 | 99 | 1012.8 |
| 20260502110955 | 34 | 272 | 0.0 | 0.0 | 0.00 | 0.00 | 0.00 | 99 | 1012.8 |
| 20260502110452 | 34 | 269 | 0.0 | 0.0 | 0.00 | 0.00 | 0.00 | 99 | 1012.9 |
| 20260502105949 | 34 | 255 | 0.0 | 1.0 | 0.00 | 0.00 | 0.00 | 99 | 1012.8 |
| 20260502105447 | 34 | 274 | 0.0 | 0.0 | 0.00 | 0.00 | 0.00 | 99 | 1012.7 |
| 20260502104944 | 34 | 274 | 0.0 | 0.0 | 0.00 | 0.00 | 0.00 | 99 | 1012.6 |
| 20260502104441 | 33 | 274 | 0.0 | 0.0 | 0.00 | 0.00 | 0.00 | 99 | 1012.6 |
| 20260502103938 | 33 | 274 | 0.0 | 0.0 | 0.00 | 0.00 | 0.00 | 99 | 1012.6 |
| 20260502103436 | 33 | 274 | 0.0 | 0.0 | 0.00 | 0.00 | 0.00 | 99 | 1012.5 |
| 20260502102933 | 34 | 274 | 0.0 | 0.0 | 0.00 | 0.00 | 0.00 | 99 | 1012.4 |
| 20260502102430 | 34 | 274 | 0.0 | 0.0 | 0.00 | 0.00 | 0.00 | 99 | 1012.5 |
| 20260502101927 | 33 | 274 | 0.0 | 0.0 | 0.00 | 0.00 | 0.00 | 99 | 1012.7 |
| 20260502101425 | 34 | 274 | 0.0 | 0.0 | 0.00 | 0.00 | 0.00 | 99 | 1012.8 |
| 20260502100923 | 34 | 274 | 0.0 | 0.0 | 0.00 | 0.00 | 0.00 | 99 | 1013.0 |
| 20260502100422 | 34 | 274 | 0.0 | 0.0 | 0.00 | 0.00 | 0.00 | 99 | 1012.9 |
| 20260502091356 | 34 | 274 | 0.0 | 0.0 | 0.00 | 0.00 | 0.00 | 99 | 1012.9 |
| 20260502090854 | 34 | 274 | 0.0 | 0.0 | 0.00 | 0.00 | 0.00 | 99 | 1013.0 |
| 20260502090350 | 34 | 274 | 0.0 | 0.0 | 0.00 | 0.00 | 0.00 | 99 | 1013.1 |
| 20260502071245 | 36 | 271 | 0.0 | 0.0 | 0.00 | 0.00 | 0.00 | 99 | 1012.9 |
| 20260502070743 | 35 | 271 | 0.0 | 0.0 | 0.00 | 0.00 | 0.00 | 99 | 1012.4 |
| 20260502070240 | 35 | 271 | 0.0 | 0.0 | 0.00 | 0.00 | 0.00 | 99 | 1012.5 |
| 20260502065739 | 35 | 272 | 0.0 | 0.0 | 0.00 | 0.00 | 0.00 | 99 | 1012.8 |
| 20260502065237 | 36 | 271 | 0.0 | 0.0 | 0.00 | 0.00 | 0.00 | 99 | 1012.7 |
| 20260502064735 | 36 | 256 | 0.0 | 0.0 | 0.00 | 0.00 | 0.00 | 99 | 1012.7 |
| 20260502064232 | 36 | 254 | 0.0 | 0.0 | 0.00 | 0.00 | 0.00 | 99 | 1013.0 |
| 20260502063729 | 36 | 255 | 0.0 | 0.0 | 0.00 | 0.00 | 0.00 | 99 | 1012.9 |
| 20260502063227 | 36 | 300 | 0.0 | 0.0 | 0.00 | 0.00 | 0.00 | 99 | 1012.6 |
| 20260502062724 | 36 | 300 | 0.0 | 0.0 | 0.00 | 0.00 | 0.00 | 99 | 1012.8 |
| 20260502062222 | 37 | 301 | 0.0 | 0.0 | 0.00 | 0.00 | 0.00 | 99 | 1012.9 |
| 20260502061720 | 37 | 301 | 0.0 | 0.0 | 0.00 | 0.00 | 0.00 | 99 | 1012.9 |
| 20260502061217 | 37 | 149 | 0.0 | 0.0 | 0.00 | 0.00 | 0.00 | 99 | 1013.1 |
| 20260502060712 | 37 | 147 | 0.0 | 0.0 | 0.00 | 0.00 | 0.00 | 99 | 1013.3 |
| 20260502060209 | 37 | 147 | 0.0 | 0.0 | 0.00 | 0.00 | 0.00 | 99 | 1013.0 |
| 20260502055707 | 38 | 147 | 0.0 | 0.0 | 0.00 | 0.00 | 0.00 | 99 | 1013.2 |
| 20260502055204 | 38 | 147 | 1.0 | 1.0 | 0.00 | 0.00 | 0.00 | 99 | 1012.9 |
| 20260502054704 | 38 | 147 | 1.0 | 1.0 | 0.00 | 0.00 | 0.00 | 99 | 1012.9 |
| 20260502054200 | 38 | 146 | 0.0 | 0.0 | 0.00 | 0.00 | 0.00 | 99 | 1013.1 |
| 20260502053658 | 37 | 146 | 0.0 | 0.0 | 0.00 | 0.00 | 0.00 | 99 | 1013.2 |
| 20260502053154 | 37 | 146 | 0.0 | 0.0 | 0.00 | 0.00 | 0.00 | 98 | 1013.1 |
| 20260502052653 | 38 | 146 | 0.0 | 0.0 | 0.00 | 0.00 | 0.00 | 98 | 1013.2 |
| 20260502052151 | 37 | 146 | 0.0 | 0.0 | 0.00 | 0.00 | 0.00 | 98 | 1013.3 |
| 20260502051648 | 38 | 145 | 0.0 | 0.0 | 0.00 | 0.00 | 0.00 | 97 | 1013.2 |
| 20260502051147 | 38 | 147 | 0.0 | 0.0 | 0.00 | 0.00 | 0.00 | 98 | 1013.2 |
| 20260502050642 | 37 | 143 | 0.0 | 0.0 | 0.00 | 0.00 | 0.00 | 97 | 1013.4 |
| 20260502050139 | 38 | 142 | 0.0 | 0.0 | 0.00 | 0.00 | 0.00 | 97 | 1013.3 |
| 20260502045636 | 39 | 142 | 0.0 | 0.0 | 0.00 | 0.00 | 0.00 | 96 | 1013.3 |
| 20260502045133 | 39 | 142 | 0.0 | 0.0 | 0.00 | 0.00 | 0.00 | 96 | 1013.3 |
| 20260502044629 | 39 | 196 | 1.0 | 1.0 | 0.00 | 0.00 | 0.00 | 96 | 1013.4 |
| 20260502044126 | 39 | 235 | 0.0 | 1.0 | 0.00 | 0.00 | 0.00 | 96 | 1013.2 |
| 20260502043625 | 39 | 8 | 0.0 | 0.0 | 0.00 | 0.00 | 0.00 | 95 | 1013.4 |
| 20260502043121 | 40 | 298 | 0.0 | 0.0 | 0.00 | 0.00 | 0.00 | 95 | 1013.5 |
| 20260502042621 | 40 | 206 | 0.0 | 0.0 | 0.00 | 0.00 | 0.00 | 95 | 1013.5 |
| 20260502042118 | 40 | 209 | 0.0 | 0.0 | 0.00 | 0.00 | 0.00 | 94 | 1013.5 |
| 20260502041616 | 40 | 204 | 0.0 | 0.0 | 0.00 | 0.00 | 0.00 | 94 | 1013.4 |
| 20260502041113 | 40 | 204 | 0.0 | 0.0 | 0.00 | 0.00 | 0.00 | 93 | 1013.2 |
| 20260502040609 | 41 | 204 | 0.0 | 0.0 | 0.00 | 0.00 | 0.00 | 92 | 1013.5 |
| 20260502040107 | 41 | 204 | 0.0 | 0.0 | 0.00 | 0.00 | 0.00 | 92 | 1013.3 |
| 20260502035603 | 41 | 183 | 0.0 | 0.0 | 0.00 | 0.00 | 0.00 | 91 | 1013.3 |
| 20260502035100 | 42 | 182 | 0.0 | 0.0 | 0.00 | 0.00 | 0.00 | 91 | 1013.4 |
| 20260502034558 | 42 | 181 | 0.0 | 1.0 | 0.00 | 0.00 | 0.00 | 91 | 1013.4 |
| 20260502034056 | 42 | 181 | 0.0 | 0.0 | 0.00 | 0.00 | 0.00 | 90 | 1013.1 |
| 20260502033554 | 42 | 181 | 0.0 | 1.0 | 0.00 | 0.00 | 0.00 | 90 | 1013.2 |
| 20260502033051 | 42 | 181 | 0.0 | 0.0 | 0.00 | 0.00 | 0.00 | 88 | 1013.1 |
| 20260502032547 | 43 | 181 | 0.0 | 0.0 | 0.00 | 0.00 | 0.00 | 88 | 1013.1 |
| 20260502032043 | 44 | 180 | 1.0 | 1.0 | 0.00 | 0.00 | 0.00 | 87 | 1013.1 |
| 20260502031541 | 44 | 220 | 0.0 | 0.0 | 0.00 | 0.00 | 0.00 | 86 | 1013.1 |
| 20260502031039 | 44 | 220 | 0.0 | 0.0 | 0.00 | 0.00 | 0.00 | 85 | 1013.1 |
| 20260502030538 | 44 | 220 | 0.0 | 0.0 | 0.00 | 0.00 | 0.00 | 85 | 1013.2 |
| 20260502030035 | 45 | 220 | 1.0 | 1.0 | 0.00 | 0.00 | 0.00 | 85 | 1013.1 |
| 20260502025532 | 45 | 228 | 1.0 | 2.0 | 0.00 | 0.00 | 0.00 | 84 | 1013.2 |
| 20260502025031 | 45 | 260 | 0.0 | 0.0 | 0.00 | 0.00 | 0.00 | 83 | 1013.3 |
| 20260502024527 | 45 | 292 | 0.0 | 0.0 | 0.00 | 0.00 | 0.00 | 82 | 1013.2 |
| 20260502024026 | 46 | 292 | 0.0 | 0.0 | 0.00 | 0.00 | 0.00 | 81 | 1013.2 |
| 20260502023523 | 46 | 245 | 0.0 | 0.0 | 0.00 | 0.00 | 0.00 | 80 | 1013.5 |
| 20260502023020 | 46 | 244 | 0.0 | 0.0 | 0.00 | 0.00 | 0.00 | 79 | 1013.4 |
| 20260502022517 | 47 | 231 | 1.0 | 1.0 | 0.00 | 0.00 | 0.00 | 78 | 1013.3 |
| 20260502022015 | 47 | 225 | 2.0 | 2.0 | 0.00 | 0.00 | 0.00 | 77 | 1013.2 |
| 20260502021512 | 47 | 242 | 1.0 | 1.0 | 0.00 | 0.00 | 0.00 | 76 | 1013.1 |
| 20260502021008 | 46 | 323 | 0.0 | 0.0 | 0.00 | 0.00 | 0.00 | 76 | 1012.9 |
| 20260502020506 | 46 | 12 | 0.0 | 0.0 | 0.00 | 0.00 | 0.00 | 75 | 1012.7 |
| 20260502020003 | 47 | 12 | 0.0 | 0.0 | 0.00 | 0.00 | 0.00 | 74 | 1012.5 |
| 20260502015501 | 48 | 12 | 0.0 | 0.0 | 0.00 | 0.00 | 0.00 | 73 | 1012.6 |
| 20260502014956 | 48 | 12 | 0.0 | 0.0 | 0.00 | 0.00 | 0.00 | 72 | 1012.4 |
| 20260502014454 | 49 | 2 | 0.0 | 0.0 | 0.00 | 0.00 | 0.00 | 72 | 1012.2 |
| 20260502013950 | 49 | 23 | 3.0 | 3.0 | 0.00 | 0.00 | 0.00 | 72 | 1012.4 |
| 20260502013446 | 49 | 359 | 0.0 | 0.0 | 0.00 | 0.00 | 0.00 | 72 | 1012.2 |
| 20260502012942 | 49 | 19 | 0.0 | 0.0 | 0.00 | 0.00 | 0.00 | 72 | 1012.1 |
| 20260502012440 | 49 | 349 | 0.0 | 0.0 | 0.00 | 0.00 | 0.00 | 71 | 1012.1 |
| 20260502011938 | 50 | 310 | 1.0 | 2.0 | 0.00 | 0.00 | 0.00 | 70 | 1011.9 |
| 20260502011433 | 50 | 359 | 3.0 | 3.0 | 0.00 | 0.00 | 0.00 | 69 | 1011.9 |
| 20260502010931 | 50 | 324 | 3.0 | 3.0 | 0.00 | 0.00 | 0.00 | 69 | 1011.9 |
| 20260502010427 | 50 | 348 | 1.0 | 2.0 | 0.00 | 0.00 | 0.00 | 68 | 1011.7 |